TIME,DELAY(SENSOR),PRES,OXYGEN,RAWTEMP,T(OPTODE),TCPHASE,FLUOR,BETA(BETA700),BETA(BETA412),BETA(BETA440),CDOM,C(CSC),ED(ED411.90),ED(ED443.80),ED(ED489.40),ED(ED554.70),LU(LU412.20),LU(LU443.80),LU(LU489.40),LU(LU555.00),COMP,TILTX,TILTY,CHECK
1367533221,5802,867.9299926757812000,189.8618927001953000,515.0590209960938000,7.0615310668945310,38.8054313659668000,53,125,102,84,80,10941,2146961014,2147519469,2147294765,2147512740,2147085293,2146920795,2147720082,2147124937,2045,-1,8,12268
1367536817,5809,960.6500244140625000,241.9638061523437500,555.1469726562500000,5.8077812194824220,36.5349311828613300,52,107,99,80,81,10959,2146962240,2147519725,2147299291,2147520621,2147083154,2146918802,2147728466,2147118272,2727,0,8,26780
1367540417,5807,982.2299804687500000,244.5364074707031200,560.8980712890625000,5.6268939971923830,36.5097694396972660,52,107,98,79,80,10950,2146965248,2147516397,2147300379,2147523821,2147086290,2146919168,2147730029,2147119689,3338,-1,8,62321
1367544017,5806,981.2000122070312000,250.6439971923828000,560.6320190429688000,5.6352691650390625,36.2019615173339840,52,109,99,80,81,10953,2146963876,2147518601,2147300269,2147525202,2147088896,2146919652,2147728960,2147121700,3350,-1,8,10426
1367547617,5807,993.5200195312500000,253.2904052734375000,561.3391723632812000,5.6130099296569820,36.0860786437988300,52,107,99,80,80,10953,2146964498,2147521874,2147302582,2147525586,2147087405,2146920850,2147727908,2147118774,3237,-1,8,16728
1367551217,5805,991.0300292968750000,251.3495941162109400,561.7379150390625000,5.6004581451416020,36.1881599426269500,52,106,98,80,81,10953,2146965101,2147518500,2147300251,2147523236,2147087030,2146921261,2147730523,2147119076,2789,-1,8,40053
1367554817,5807,998.3900146484375000,253.8421936035156200,561.5045166015625000,5.6078071594238280,36.0622596740722660,52,108,97,79,80,10949,2146961645,2147522313,2147304228,2147523730,2147089307,2146914532,2147729636,2147120484,3229,-1,8,10160
1367558417,5805,999.2800292968750000,253.5059967041015600,562.0001220703125000,5.5922031402587890,36.0876197814941400,52,105,97,80,80,10949,2146964900,2147517878,2147297216,2147523840,2147086646,2146918290,2147725412,2147120411,3063,-1,8,36760
1367562017,5807,998.2199707031250000,252.6414031982422000,561.4005737304688000,5.6110758781433105,36.1188392639160160,53,107,98,80,80,10948,2146964214,2147519981,2147302208,2147522642,2147081618,2146915209,2147727104,2147119762,108,-1,8,37962
1367565617,5806,1006.6199951171875000,255.9349060058593800,561.8576049804688000,5.5966892242431640,35.9685401916503900,53,109,98,80,81,10948,2146967396,2147522130,2147299602,2147523145,2147086939,2146921234,2147728256,2147122194,3340,-1,8,38546
1367569217,5803,1004.8599853515625000,254.9732055664062500,561.0463256835938000,5.6222310066223145,35.9998893737793000,52,110,98,78,80,10946,2146962770,2147518171,2147300004,2147523044,2147087104,2146916918,2147735542,2147119826,684,-1,8,11680
1367572817,5807,1004.4000244140625000,253.2158966064453000,561.7354736328125000,5.6005339622497560,36.0973701477050800,52,106,97,79,80,10946,2146964379,2147521993,2147300480,2147522916,2147086665,2146924050,2147730816,2147121929,222,-1,8,10815
1367576417,5808,1003.6199951171875000,253.1369934082031200,561.7216186523438000,5.6009712219238280,36.1001892089843750,52,108,97,79,80,10945,2146963126,2147516982,2147301604,2147524068,2147085851,2146920722,2147730285,2147123922,433,0,8,22186
1367580017,5809,1000.4699707031250000,248.6060028076172000,562.1237792968750000,5.5883078575134280,36.3297309875488300,52,105,98,81,80,10918,2146964717,2147518610,2147301650,2147523446,2147087405,2146919286,2147728173,2147122029,45,-1,8,46963
1367583617,5802,1002.5300292968750000,250.3459930419922000,562.4902954101562000,5.5767688751220700,36.2503700256347660,51,103,104,79,81,10940,2146961243,2147519213,2147298953,2147520713,2147086893,2146917540,2147731922,2147120438,3488,-1,8,55903
1367587217,5809,1004.8800048828125000,249.0740051269531200,562.3057250976562000,5.5825810432434080,36.3099403381347660,52,103,98,79,80,10937,2146963748,2147521097,2147299885,2147521993,2147087168,2146915492,2147732982,2147121974,52,0,8,35823
1367590817,5807,1006.0700073242188000,243.6891021728515600,562.7639770507812000,5.5681500434875490,36.5867805480957000,52,137,97,79,81,10872,2146964022,2147517056,2147303341,2147520082,2147082889,2146927542,2147731794,2147124160,3540,-1,8,30185
1367594417,5810,1004.7500000000000000,257.4014892578125000,562.0598144531250000,5.5903239250183105,35.9020309448242200,52,106,97,81,80,10867,2146966061,2147519369,2147301942,2147522980,2147087067,2146919734,2147731364,2147122185,101,0,8,31239
1367598017,5807,1009.3800048828125000,257.2850036621094000,562.2218017578125000,5.5852217674255370,35.9105110168457000,52,106,99,79,80,10857,2146966034,2147516608,2147300571,2147520630,2147084114,2146918528,2147728941,2147123529,600,0,8,58689
1367601617,5804,1003.8900146484375000,254.3404998779297000,562.0092163085938000,5.5919170379638670,36.0477409362793000,51,108,98,80,80,10859,2146962861,2147519616,2147298038,2147523090,2147087314,2146919241,2147730834,2147120301,2333,-1,8,47308
1367605217,5804,1013.0800170898438000,257.8745117187500000,561.6749877929688000,5.6024379730224610,35.8726615905761700,52,104,98,79,79,10852,2146965211,2147524086,2147303926,2147520813,2147086747,2146923556,2147730496,2147120768,2669,-1,8,5747
1367608817,5806,1009.8699951171875000,252.8674926757812500,561.5958251953125000,5.6049308776855470,36.1110191345214840,52,105,99,79,80,10853,2146962505,2147520576,2147302180,2147523657,2147087241,2146912594,2147728146,2147123026,3306,0,8,52605
1367612417,5805,1010.8900146484375000,255.5467987060547000,561.5026245117188000,5.6078639030456540,35.9805603027343750,53,107,98,80,81,10838,2146963702,2147520704,2147304411,2147522724,2147087497,2146917568,2147732251,2147125549,3432,-1,8,21267
1367616017,5805,1009.7399902343750000,256.2286987304687500,561.9398803710938000,5.5940990447998050,35.9561195373535160,53,106,98,80,80,10843,2146964854,2147520128,2147302171,2147521444,2147087213,2146922203,2147727789,2147124434,2885,-1,8,61404
1367619617,5807,1012.7899780273438000,256.9274902343750000,561.9882202148438000,5.5925788879394530,35.9228897094726560,52,105,97,79,80,10845,2146964242,2147526381,2147299501,2147519606,2147086390,2146914240,2147729316,2147122066,3267,0,8,16725
1367623217,5803,1008.4600219726562000,258.6657104492187500,562.6356811523438000,5.5721888542175290,35.8523292541503900,52,104,100,80,80,10844,2146965494,2147522569,2147299913,2147522797,2147086381,2146919533,2147726573,2147121088,3144,-1,8,41057
1367626817,5805,1009.4899902343750000,259.1784057617187500,562.9052734375000000,5.5636978149414060,35.8330802917480500,53,104,97,79,80,10850,2146962624,2147521316,2147302756,2147522358,2147083812,2146920731,2147731730,2147121170,3250,-1,8,39768
1367630417,5806,1017.7500000000000000,258.2705993652344000,561.6685791015625000,5.6026401519775390,35.8538017272949200,52,106,102,79,81,10841,2146962276,2147520493,2147302811,2147520859,2147087131,2146919186,2147727908,2147121600,173,-1,8,16993
1367634017,5804,1013.9199829101562000,255.1000976562500000,561.8253173828125000,5.5977082252502440,36.0081787109375000,52,110,98,80,80,10841,2146964672,2147522541,2147305398,2147521179,2147085019,2146915474,2147728036,2147118363,128,0,8,13742
1367637617,5805,1024.5100097656250000,255.6701965332031200,559.6052856445312000,5.6675782203674320,35.9402618408203100,52,108,99,80,80,10841,2146966080,2147523529,2147303945,2147523712,2147088210,2146920822,2147726445,2147121206,3276,-1,8,54746
1367641217,5810,1023.5499877929688000,254.9176025390625000,559.1635742187500000,5.6814789772033690,35.9678497314453100,52,108,98,79,81,10839,2146961545,2147522605,2147303049,2147521536,2147086098,2146921133,2147727378,2147119085,70,0,8,62635
1367644817,5809,1020.6400146484375000,254.1499938964843800,560.4899291992188000,5.6397418975830080,36.0290412902832000,53,106,99,80,81,10821,2146963620,2147518829,2147305782,2147521618,2147088402,2146915236,2147730870,2147120155,185,-1,8,45959
1367648417,5809,1021.2899780273438000,253.1383056640625000,559.6749267578125000,5.6653881072998050,36.0628700256347660,52,108,98,80,80,10832,2146968466,2147518985,2147302125,2147519826,2147091300,2146926025,2147727067,2147119433,75,-1,8,15545
1367652017,5805,1013.2100219726562000,251.7505035400390600,561.1088867187500000,5.6202597618103030,36.1567192077636700,53,108,98,82,79,10836,2146966537,2147517897,2147304000,2147521216,2147086308,2146917732,2147724644,2147120731,2433,-1,8,21510
1367655617,5807,1016.6199951171875000,257.6263122558594000,561.4509277343750000,5.6094951629638670,35.8800010681152340,52,107,99,80,80,10835,2146963693,2147516269,2147305362,2147521014,2147087588,2146921691,2147727835,2147118957,599,0,8,51540
1367659217,5807,1016.3200073242188000,257.2858886718750000,561.3425292968750000,5.6129069328308105,35.8946189880371100,52,110,98,80,80,10835,2146964516,2147520192,2147301988,2147520676,2147084278,2146920054,2147731291,2147120594,704,0,8,50633
1367662817,5806,1015.8099975585938000,254.2102966308593800,561.8864746093750000,5.5957779884338380,36.0518989562988300,51,103,98,80,79,10834,2146966308,2147524004,2147304018,2147523803,2147082889,2146917979,2147734400,2147119296,3257,-1,8,63819
1367666417,5808,1019.7999877929688000,253.7339019775390600,561.1536865234375000,5.6188488006591800,36.0614395141601560,53,111,100,79,81,10829,2146961828,2147521929,2147302811,2147521234,2147084169,2146923044,2147730368,2147119908,11,0,8,54842
1367670017,5806,1019.7100219726562000,252.2299041748047000,561.5225219726562000,5.6072411537170410,36.1406211853027340,53,106,100,78,80,10807,2146964397,2147520740,2147302820,2147520859,2147086555,2146921572,2147728475,2147119177,3445,0,8,4559
1367673617,5808,1015.3599853515625000,255.6204071044922000,561.6959228515625000,5.6017818450927730,35.9800987243652340,52,105,99,81,80,10807,2146966308,2147516964,2147300105,2147522450,2147086253,2146916342,2147729956,2147121965,143,-1,8,961
1367677217,5807,1019.4400024414062000,255.0720062255859400,561.5648803710938000,5.6059060096740720,36.0039405822753900,51,110,98,80,79,10805,2146968521,2147518509,2147300900,2147522029,2147086180,2146920649,2147730267,2147121938,294,0,8,36197
1367678156,5806,1022.1900024414062000,253.8023986816406200,561.4898071289062000,5.6082692146301270,36.0638694763183600,52,106,98,80,80,10916,2146965238,2147518363,2147299648,2147522587,2147084150,2146924013,2147732233,2147119405,75,-1,8,23417
